Change the Weather History Date:

Thursday, February 7, 2013

  Actual Average Record
Temperature  
Mean Temperature 31 °F 21 °F  
Max Temperature 35 °F 30 °F 47 °F (2009)
Min Temperature 27 °F 12 °F -11 °F (2014)
Degree Days  
Heating Degree Days 34 44  
Month to date heating degree days 305 312  
Since 1 July heating degree days 4178 4545  
Cooling Degree Days 0 0  
Month to date cooling degree days 0 0  
Year to date cooling degree days 0 0  
Moisture  
Dew Point 31 °F    
Average Humidity 91    
Maximum Humidity 100    
Minimum Humidity 82    
Precipitation  
Precipitation 0.10 in 0.03 in 0.10 in (2013)
Month to date precipitation 0.11 0.16  
Sea Level Pressure  
Sea Level Pressure 30.00 in    
Wind  
Wind Speed 12 mph (NNW)    
Max Wind Speed 23 mph    
Max Gust Speed 28 mph    
Visibility 5 miles    
Events Rain    
T = Trace of Precipitation, MM = Missing Value Source: NWS Daily Summary

Daily Weather History Graph

Daily Weather History Graph

Search for Another Location

Airport or City:

Trip Planner

Search our weather history database for the weather conditions in past years. The results will help you decide how hot, cold, wet, or windy it might be!

Date:

Astronomy

Feb. 07, 2013 Rise Set
Actual Time 7:17 AM CST 5:34 PM CST
Civil Twilight 6:48 AM CST 6:03 PM CST
Nautical Twilight 6:15 AM CST 6:36 PM CST
Astronomical Twilight 5:42 AM CST 7:09 PM CST
Moon 4:59 AM CST (2/7) 2:58 PM CST (2/7)
Length of Visible Light 11h 15m
Length of Day
10h 16m
Waning Crescent, 9% of the Moon is Illuminated
Feb 7
Waning Crescent
Feb 10
New
Feb 17
First Quarter
Feb 25
Full
Mar 4
Last Quarter

Hourly Weather History & Observations

Time (CST) Temp. Windchill Dew Point Humidity Pressure Visibility Wind Dir Wind Speed Gust Speed Precip Events Conditions
12:53 AM 35.1 °F 28.6 °F 30.9 °F 85% 29.93 in 10.0 mi SE 8.1 mph - N/A   Partly Cloudy
1:53 AM 35.1 °F 31.0 °F 30.9 °F 85% 29.93 in 10.0 mi SE 4.6 mph - N/A   Overcast
2:53 AM 34.0 °F 28.8 °F 30.9 °F 89% 29.92 in 10.0 mi ESE 5.8 mph - N/A   Partly Cloudy
3:53 AM 34.0 °F 31.0 °F 32.0 °F 92% 29.92 in 8.0 mi East 3.5 mph - N/A   Mostly Cloudy
4:53 AM 34.0 °F 31.0 °F 32.0 °F 92% 29.92 in 8.0 mi East 3.5 mph - N/A   Overcast
5:53 AM 34.0 °F 31.0 °F 32.0 °F 92% 29.91 in 7.0 mi ESE 3.5 mph - N/A   Overcast
6:53 AM 34.0 °F 29.8 °F 33.1 °F 96% 29.91 in 7.0 mi SE 4.6 mph - 0.00 in Rain Light Rain
7:53 AM 34.0 °F - 33.1 °F 96% 29.93 in 4.0 mi Calm Calm - 0.01 in Rain Light Rain
8:23 AM 33.8 °F 27.7 °F 33.8 °F 100% 29.92 in 2.5 mi NW 6.9 mph - 0.01 in Rain Light Rain
8:31 AM 33.8 °F 27.7 °F 33.8 °F 100% 29.92 in 3.0 mi NNW 6.9 mph - 0.01 in Rain Light Rain
8:53 AM 34.0 °F 28.0 °F 33.1 °F 96% 29.96 in 3.0 mi NNW 6.9 mph - 0.02 in Rain Light Rain
9:04 AM 33.8 °F 27.7 °F 33.8 °F 100% 29.93 in 2.0 mi NW 6.9 mph - 0.01 in Rain Light Rain
9:27 AM 33.8 °F 27.0 °F 33.8 °F 100% 29.93 in 1.8 mi NNW 8.1 mph - 0.04 in Rain Light Rain
9:53 AM 34.0 °F 26.0 °F 33.1 °F 96% 29.97 in 1.5 mi NW 10.4 mph - 0.06 in Rain Light Rain
10:15 AM 33.8 °F 26.4 °F 33.8 °F 100% 29.94 in 2.5 mi NNW 9.2 mph - 0.00 in Rain Light Rain
10:25 AM 33.8 °F 25.8 °F 33.8 °F 100% 29.94 in 3.0 mi NNW 10.4 mph - 0.00 in Rain Light Rain
10:53 AM 35.1 °F 28.6 °F 33.1 °F 92% 29.97 in 4.0 mi NNW 8.1 mph - 0.01 in Rain Light Rain
11:39 AM 35.6 °F 27.1 °F 33.8 °F 93% 29.95 in 4.0 mi NNW 12.7 mph - 0.00 in   Overcast
11:53 AM 34.0 °F 24.2 °F 33.1 °F 96% 29.97 in 4.0 mi North 15.0 mph - 0.00 in   Overcast
12:07 PM 33.8 °F 24.8 °F 33.8 °F 100% 29.94 in 3.0 mi NNW 12.7 mph - N/A   Overcast
12:25 PM 33.8 °F 23.9 °F 32.0 °F 93% 29.94 in 2.5 mi NNW 15.0 mph - N/A   Overcast
12:53 PM 33.1 °F 22.6 °F 30.9 °F 92% 29.97 in 2.5 mi NNW 16.1 mph - N/A   Overcast
1:53 PM 32.0 °F 20.8 °F 30.9 °F 96% 29.98 in 2.0 mi NNW 17.3 mph - N/A   Overcast
2:53 PM 32.0 °F 20.1 °F 30.0 °F 92% 29.99 in 1.8 mi NNW 19.6 mph - N/A   Overcast
3:34 PM 30.2 °F 18.1 °F 30.2 °F 100% 29.98 in 2.0 mi NNW 18.4 mph - N/A   Overcast
3:53 PM 30.9 °F 19.4 °F 30.0 °F 96% 30.02 in 2.0 mi NNW 17.3 mph - N/A   Overcast
4:53 PM 30.9 °F 18.7 °F 28.9 °F 92% 30.05 in 2.0 mi NNW 19.6 mph - N/A   Overcast
5:51 PM 30.2 °F 19.3 °F 28.4 °F 93% 30.05 in 3.0 mi NNW 15.0 mph - N/A   Overcast
5:53 PM 30.0 °F 19.1 °F 28.9 °F 96% 30.08 in 3.0 mi NNW 15.0 mph - N/A   Overcast
6:53 PM 28.9 °F 16.5 °F 27.0 °F 92% 30.11 in 4.0 mi NNW 18.4 mph - N/A   Overcast
7:53 PM 28.9 °F 15.8 °F 27.0 °F 92% 30.14 in 5.0 mi NNW 20.7 mph 27.6 mph N/A   Overcast
8:53 PM 28.9 °F 16.1 °F 26.1 °F 89% 30.15 in 7.0 mi North 19.6 mph - N/A   Overcast
9:53 PM 28.0 °F 14.9 °F 25.0 °F 88% 30.17 in 8.0 mi North 19.6 mph - N/A   Overcast
10:53 PM 28.0 °F 15.3 °F 25.0 °F 88% 30.19 in 8.0 mi NNW 18.4 mph - N/A   Overcast
11:03 PM 28.4 °F 15.8 °F 24.8 °F 86% 30.16 in 9.0 mi NNW 18.4 mph - N/A   Overcast
11:53 PM 27.0 °F 13.9 °F 24.1 °F 89% 30.20 in 10.0 mi North 18.4 mph - N/A   Overcast